Regional Weather Roundup
Issued by NWS

Home | Current Version | Previous Version | Text Only | Print | Product List | Glossary On
Versions: 1 2 3 4 5 6 7 8 9 10 11 12 13 14 15 16 17 18 19 20 21 22 23 24 25 26 27 28 29 30 31 32 33 34 35 36 37 38 39 40 41 42 43 44 45 46 47 48 49 50
000
ASUS44 KFWD 242015
RWRTX
NORTH TEXAS HOURLY WEATHER ROUNDUP
NATIONAL WEATHER SERVICE FORT WORTH TX
300 PM CDT FRI OCT 24 2014

NOTE: "FAIR" INDICATES FEW OR NO CLOUDS BELOW 12,000 FEET WITH NO
SIGNIFICANT WEATHER AND/OR OBSTRUCTIONS TO VISIBILITY.

TXZ118-119-242100-
DALLAS/FORT WORTH METROPLEX

CITY           SKY/WX    TMP DP  RH WIND       PRES   REMARKS
DFW AIRPORT    MOSUNNY   82  60  47 SW5       30.08F
DALLAS LOVE    MOSUNNY   82  59  45 VRB3      30.08F
FTW MEACHAM    SUNNY     84  61  45 S8        30.07F
DAL-EXECUTIVE  SUNNY     84  60  44 VRB6      30.09F
FTW-ALLIANCE   MOSUNNY   84  60  44 S8        30.07F
FTW-NAS-JRB    MOSUNNY   88  59  37 S9        30.11F
FTW-SPINKS     SUNNY     84  61  45 S6        30.10F
ARLINGTON      SUNNY     83  59  44 SW5G20    30.09F
GRAND PRAIRIE  SUNNY     82  61  47 MISG      30.10F
ADDISON        SUNNY     82  57  42 S9        30.09F
MESQUITE       SUNNY     81  57  44 SW8       30.10F
LANCASTER      SUNNY     82  57  43 SW6       30.10F
$$

TXZ091>094-102>105-117-120-121-131>134-242100-
NORTH CENTRAL TEXAS

CITY           SKY/WX    TMP DP  RH WIND       PRES   REMARKS
SHRMAN/DENISON SUNNY     82  64  53 S10G17    30.09F
GAINESVILLE    SUNNY     81  61  51 S10       30.10F
BOWIE          SUNNY     83  61  47 S8        30.07F
BRIDGEPORT     SUNNY     85  61  43 S8        30.09F
DECATUR        SUNNY     83  58  42 S8        30.08F
DENTON         SUNNY     83  61  47 S12       30.08F
MCKINNEY       SUNNY     80  59  48 SW13      30.08F
GREENVILLE     SUNNY     81  55  41 S8        30.10F
ROCKWALL       SUNNY     80  60  50 SW5       30.09F
TERRELL        SUNNY     81  60  48 SW7       30.10F
WAXAHACHIE     SUNNY     83  62  48 W5        30.11F
CLEBURNE       SUNNY     82  61  47 SE8       30.11F
GRANBURY       PTSUNNY   86  59  40 S9        30.09F
$$

TXZ083>090-098>101-113>116-127>130-139>142-154-155-242100-
WESTERN NORTH TEXAS

CITY           SKY/WX    TMP DP  RH WIND       PRES   REMARKS
WICHITA FALLS  MOSUNNY   85  62  46 SW13      30.05F
WF-KICKAPOO    SUNNY     85  59  40 SW8       30.07F
VERNON         SUNNY     90  55  31 S16       30.04F
ABILENE        SUNNY     85  56  37 SW14      30.10F
ABILENE-DYESS  SUNNY     86  58  38 S10       30.08F
BRECKENRIDGE   SUNNY     87  56  34 SW12G23   30.07F HAZE
GRAHAM         SUNNY     86  61  42 S6        30.05F
MINERAL WELLS  SUNNY     86  58  38 S9G17     30.06F
STEPHENVILLE   SUNNY     83  58  42 SW6       30.12F
COMANCHE       SUNNY     85  58  41 SW9G18    30.11F
BROWNWOOD      SUNNY     84  57  39 S6        30.10F
COLEMAN        SUNNY     85  59  40 S9        30.11F
BRADY          SUNNY     86  55  35 SW7       30.11F
$$

TXZ143>147-156>162-174-175-242100-
CENTRAL TEXAS

CITY           SKY/WX    TMP DP  RH WIND       PRES   REMARKS
WACO           SUNNY     82  59  45 SE8       30.10F
WACO-TSTC      SUNNY     82  59  44 S7        30.10F
WACO-MCGREGOR  SUNNY     82  59  44 SW5       30.11F
HILLSBORO      SUNNY     82  58  43 SW5       30.10F
CORSICANA      SUNNY     81  58  45 SW3       30.12F
MEXIA          SUNNY     79  59  50 CALM      30.11F
HEARNE         SUNNY     80  56  45 CALM      30.12F
CAMERON        SUNNY     82  58  45 S3        30.11F
TEMPLE         SUNNY     82  57  42 SW7       30.10F
KILLEEN        MOSUNNY   83  59  44 S6        30.10F
KILLEEN-SKYLRK SUNNY     84  59  42 SE8       30.09F
FORT HOOD      MOSUNNY   84  60  44 S3        30.10F
GATESVILLE     MOSUNNY   82  61  47 CALM      30.12F
HAMILTON       MOSUNNY   83  57  40 CALM      30.11F
LAMPASAS       SUNNY     82  61  49 S6        30.11F
$$

TXZ095>097-106>112-122>126-135>138-148>153-164>167-242100-
EAST TEXAS

CITY           SKY/WX    TMP DP  RH WIND       PRES   REMARKS
PARIS          SUNNY     79  55  44 S3        30.11F
SULPHUR SPRNGS SUNNY     79  56  45 SE5       30.12F
MOUNT PLEASANT SUNNY     78  56  46 SW5       30.12F
MINEOLA        SUNNY     79  57  47 S5        30.12F
TYLER          SUNNY     80  56  43 NE3       30.11F
LONGVIEW       SUNNY     78  55  44 W3        30.11F
MARSHALL       SUNNY     78  54  42 CALM      30.13F
ATHENS         SUNNY     77  55  47 W3        30.11F
PALESTINE      SUNNY     78  58  49 CALM      30.13F
JACKSONVILLE   SUNNY     77  55  47 CALM      30.14F
HENDERSON      SUNNY     78  54  42 CALM      30.12F
NACOGDOCHES    SUNNY     79  54  41 NW6       30.11F
LUFKIN         SUNNY     81  53  37 NW6       30.11F
$$

SUPPLEMENTAL OBSERVATIONS (CENTRAL)

CITY           SKY/WX    TMP DP  RH WIND       PRES   REMARKS
LAKE TEXOMA      N/A    N/A N/A N/A SW7         N/A
CADDO GRASSLND   N/A     81  57  44 S7          N/A
PAT MAYSE LAKE   N/A     77  57  50 S7          N/A
ATHENS           N/A     81  55  41 SE3         N/A
PALESTINE        N/A     82  59  44 NW2         N/A
LAKE LIMESTONE   N/A     82  57  42 NE1         N/A
MCGREGOR         N/A     84  59  42 S5          N/A
TEMPLE           N/A     82  57  42 S5          N/A
$$

SUPPLEMENTAL OBSERVATIONS (WEST)

CITY           SKY/WX    TMP DP  RH WIND       PRES   REMARKS
MILLERS CREEK    N/A     86  66  51 SW10G22     N/A
POSSUM KINGDOM   N/A     88  57  35 S8          N/A
LBJ GRASSLAND    N/A     86  59  39 S8          N/A
GRANBURY         N/A     86  57  37 S8G16       N/A
COMANCHE         N/A     84  59  42 SW9G17      N/A
HAMBY            N/A     86  57  37 S12         N/A
COLORADO BEND    N/A     84  57  39 SW7         N/A
$$

SUPPLEMENTAL OBSERVATIONS (EAST)

CITY           SKY/WX    TMP DP  RH WIND       PRES   REMARKS
CLARKSVILLE      N/A     79  55  44 S5          N/A
TEXARKANA        N/A     81  57  44 NE2         N/A
LINDEN           N/A     81  55  41 NW2         N/A
CADDO LAKE       N/A     81  54  39 NW3         N/A
GILMER           N/A     81  57  44 NE2         N/A
HENDERSON        N/A     79  54  41 W3          N/A
LUFKIN           N/A     81  55  41 MISG        N/A
N SABINE NF      N/A     77  54  44 MISG        N/A
S SABINE NF      N/A     77  52  41 NE3         N/A
$$

SUPPLEMENTAL OBSERVATIONS ARE A COLLECTION OF AUTOMATED INSTRUMENTS
THAT ARE MAINTAINED BY A VARIETY OF FEDERAL AND STATE AGENCIES.
CERTAIN ELEMENTS...SUCH AS HUMIDITY VALUES AND SUSTAINED WIND
SPEEDS...MAY BE APPROXIMATED.




USA.gov is the U.S. government's official web portal to all federal, state and local government web resources and services.